Regional Weather Roundup
Issued by NWS

Home | Current Version | Previous Version | Text Only | Print | Product List | Glossary On
Versions: 1 2 3 4 5 6 7 8 9 10 11 12 13 14 15 16 17 18 19 20 21 22 23 24 25 26 27 28 29 30 31 32 33 34 35 36 37 38 39 40 41 42 43 44 45 46 47 48 49 50
000
ASUS46 KPQR 020010
RWROR

OREGON REGIONAL WEATHER ROUNDUP
NATIONAL WEATHER SERVICE PORTLAND OR
500 PM PDT MON SEP 01 2014

NOTE: "FAIR" INDICATES FEW OR NO CLOUDS BELOW 12,000 FEET WITH
NO SIGNIFICANT WEATHER AND/OR OBSTRUCTIONS TO VISIBILITY.

ORZ001>013-020100-
NORTHWEST OREGON


CITY           SKY/WX    TMP DP  RH WIND       PRES   REMARKS
ASTORIA        SUNNY     70  58  65 NW9       30.04F
6HR MIN TEMP:  66; 6HR MAX TEMP:  72;

NEWPORT        PTSUNNY   66  61  82 N13       30.06F
PORTLAND       MOSUNNY   80  54  40 NW10      29.99F
6HR MIN TEMP:  68; 6HR MAX TEMP:  80;

VANCOUVER WA   SUNNY     79  53  40 VRB7      29.99F
6HR MIN TEMP:  67; 6HR MAX TEMP:  80;

SCAPPOOSE      PTSUNNY   80  54  40 N8        29.98F
6HR MIN TEMP:  67; 6HR MAX TEMP:  80;

HILLSBORO      PTSUNNY   79  55  43 NE8       29.99F
6HR MIN TEMP:  67; 6HR MAX TEMP:  81;

AURORA         SUNNY     80  52  37 VRB3      29.99F
6HR MIN TEMP:  69; 6HR MAX TEMP:  82;

MCMINNVILLE    PTSUNNY   81  53  37 CALM      29.99F
6HR MIN TEMP:  68; 6HR MAX TEMP:  83;

SALEM          MOSUNNY   82  52  35 N10       29.97F
6HR MIN TEMP:  70; 6HR MAX TEMP:  83;

CORVALLIS      SUNNY     84  54  34 NE10      29.98F
EUGENE         MOSUNNY   85  51  31 N14       29.96F
6HR MIN TEMP:  70; 6HR MAX TEMP:  85;

$$

ORZ021-028-020100-
SOUTHWEST OREGON


CITY           SKY/WX    TMP DP  RH WIND       PRES   REMARKS
NORTH BEND     SUNNY     70  57  64 N20G26    29.99F
6HR MIN TEMP:  70; 6HR MAX TEMP:  73;

BROOKINGS      CLEAR     85  56  37 NW13      29.84F
ROSEBURG       SUNNY     89  47  23 N14       29.92F
6HR MIN TEMP:  69; 6HR MAX TEMP:  89;

SEXTON SUMMIT  SUNNY     73  43  33 MISG      30.04F
6HR MIN TEMP:  64; 6HR MAX TEMP:  75;

MEDFORD        SUNNY     92  33  12 W3        29.88F
6HR MIN TEMP:  70; 6HR MAX TEMP:  92;

$$

ORZ009-041-020100-
COLUMBIA GORGE


CITY           SKY/WX    TMP DP  RH WIND       PRES   REMARKS
TROUTDALE      SUNNY     80  52  37 W7        29.98F
6HR MIN TEMP:  70; 6HR MAX TEMP:  81;

THE DALLES     SUNNY     83  49  30 NW16      29.91F
6HR MIN TEMP:  72; 6HR MAX TEMP:  85;

$$

ORZ029>031-042>050-061>064-020100-
EASTERN OREGON


CITY           SKY/WX    TMP DP  RH WIND       PRES   REMARKS
REDMOND        SUNNY     79  37  22 NW6       30.01F
6HR MIN TEMP:  65; 6HR MAX TEMP:  80;

BEND           CLEAR     75  37  25 N5        30.04F
KLAMATH FALLS  SUNNY     81  31  16 VRB5      30.03S
6HR MIN TEMP:  65; 6HR MAX TEMP:  81;

LAKEVIEW       SUNNY     79  30  17 NE6       30.06F
HERMISTON      SUNNY     81  44  27 CALM      29.93F
6HR MIN TEMP:  70; 6HR MAX TEMP:  83;

PENDLETON      SUNNY     79  40  24 W10       29.96F
6HR MIN TEMP:  69; 6HR MAX TEMP:  80;

JOHN DAY       CLEAR     76  37  24 NW3       30.04F
MEACHAM        SUNNY     70  40  33 VRB3      30.06F
6HR MIN TEMP:  60; 6HR MAX TEMP:  71;

LA GRANDE      SUNNY     75  39  27 N8        29.99F
6HR MIN TEMP:  63; 6HR MAX TEMP:  79;

BAKER CITY     SUNNY     74  44  34 NW7       30.03F
6HR MIN TEMP:  60; 6HR MAX TEMP:  74;

BURNS          SUNNY     78  31  17 SE13G20   30.04F
6HR MIN TEMP:  64; 6HR MAX TEMP:  78;

ROME             N/A     80  32  17 S7        30.02F
6HR MIN TEMP:  66; 6HR MAX TEMP:  81;

ONTARIO        SUNNY     79  41  25 VRB3      30.00F
6HR MIN TEMP:  69; 6HR MAX TEMP:  80;

$$


USA.gov is the U.S. government's official web portal to all federal, state and local government web resources and services.